COSMOS 2369

Satellite information

Favourite Embed

Satellite Type and Status

PAYLOADIN ORBIT

Key statistics

Satellite COSMOS 2369 at a glance.

Uptime

9445

Days in orbit

Revolutions

≈ 14.1

Per day

Orbit

LEO

Low Earth Orbit

Inclination

71.0

Latest

Satellite identification and parameters

Extended collection of information and parameters for COSMOS 2369.

Object identification

Identified? True

Debris? False

Object name: COSMOS 2369

International designator: 2000-006A

Object number (NORAD): 26069

Object ID (CCSDS): 26069

Country: COMMONWEALTH OF INDEPENDENT STATES (CIS)

Current information (Y/N): Y

RCS size: LARGE

Orbital parameters

Period: 101.849 minutes

Inclination: 70.995 deg

SMA: 7224.351 km

Apoapsis: 855.365 km

Periapsis: 837.066 km

RAAN: 343.3388 deg

Eccentricy: 0.00126646

Argument of periapsis: 220.2233 deg

Mean anomaly: 139.7953 deg

Mean motion: 14.1385389 rev/day

Mean motion (dot): 0.000003 rev/day2

B* drag term: 0.0001831971 1/REarth

Two-line elements (TLE)

Creation date: Dec. 12, 2025, 10:14 a.m.

Reference frame: TEME

Reference center: EARTH

Epoch: Dec. 12, 2025, 6:09 a.m. UTC

TLE line 0: 0 COSMOS 2369

TLE line 1: 1 26069U 00006A 25346.25657129 .00000300 00000-0 18320-3 0 9996

TLE line 2: 2 26069 70.9950 343.3388 0012665 220.2233 139.7953 14.13853890597539

Live tracking on map

Real-time ground track for satellite COSMOS 2369.

In-orbit conjunctions

A list of the most updated potential collisions computed for object COSMOS 2369.

Target Orbit TCA Probability of collision Miss distance Type
SL-14 DEB LEO 2025-11-01 07:07:20 0.00937549 14.0 (m) DEBRIS
FENGYUN 1C DEB SSO 2025-09-19 15:20:14 0.000135767 927.0 (m) DEBRIS
FENGYUN 1C DEB SSO 2025-08-05 12:07:53 0.0008162818 402.0 (m) DEBRIS
NOAA 16 DEB SSO 2025-06-08 08:21:54 0.0001171587 606.0 (m) DEBRIS
THORAD AGENA D DEB SSO 2025-03-31 10:38:17 0.0001332832 511.0 (m) DEBRIS

Associated space launch

Second generation ELING satellite

COSMOS 2369 was lifted into orbit during the mission ‘Zenit-2 | Tselina-2 21’, on board a Zenit-2 space rocket.

The launch took place on Feb. 3, 2000, 9:26 a.m. from 45/1.

For more information about the launch, click the button.

Launch to space Zenit-2 | Tselina-2 21
Zenit-2 | Tselina-2 21

Agency: N/A

Status: Launch Successful

Launch date: Feb. 3, 2000, 9:26 a.m. UTC

Rocket: Zenit-2

Launch pad: 45/1

Location: Baikonur Cosmodrome, Republic of Kazakhstan

...

Latest news about this satellite

There are no fresh news available about this satellite. Check back as we update our databases every day.


Newsletter sign-up

Weekly statistics, charts and insights to help you stay on top of the space industry.